When you browse on this site, cookies collect data to enhance your experience and personalize the content and advertising you see.
Visit our Privacy Policy to learn more. By continuing to use the site, you agree to this use of cookies and data.
  • In Deutschland
  • Länderverzeichnis
  • Für 7 Tage
  • Wassertemperatur
  • Wetterkarte
  • Widgets
  • user-avatar
    Anmelden

    Stündliche Wetter Klagenfurt

    Heute, 17 November, Sonntag

    Zeit Temperatur Niederschläge Wind Luftdruck Luftfeuchtigkeit
    00:00 +6°C° 0.3 mm 1 m/S 685 mmHg 95%
    01:00 +7°C° 0 mm 1 m/S 685 mmHg 94%
    02:00 +7°C° 0.3 mm 1 m/S 685 mmHg 95%
    03:00 +7°C° 0.3 mm 1 m/S 684 mmHg 96%
    04:00 +8°C° 0.3 mm 1 m/S 684 mmHg 97%
    05:00 +8°C° 0.2 mm 1 m/S 684 mmHg 96%
    06:00 +7°C° 0.2 mm 2 m/S 683 mmHg 96%
    07:00 +7°C° 0.2 mm 2 m/S 683 mmHg 96%
    08:00 +8°C° 0.1 mm 2 m/S 683 mmHg 95%
    09:00 +8°C° 0.1 mm 2 m/S 683 mmHg 94%
    10:00 +9°C° 0.1 mm 1 m/S 683 mmHg 93%
    11:00 +8°C° 0.3 mm 2 m/S 683 mmHg 93%
    12:00 +9°C° 0.3 mm 2 m/S 683 mmHg 93%
    13:00 +9°C° 0.3 mm 3 m/S 682 mmHg 93%
    14:00 +9°C° 3.1 mm 2 m/S 682 mmHg 94%
    15:00 +9°C° 3.1 mm 2 m/S 682 mmHg 95%
    16:00 +8°C° 3.1 mm 2 m/S 681 mmHg 96%
    17:00 +8°C° 5 mm 2 m/S 681 mmHg 97%
    18:00 +8°C° 5 mm 2 m/S 682 mmHg 97%
    19:00 +9°C° 5 mm 1 m/S 682 mmHg 98%
    20:00 +9°C° 2.5 mm 1 m/S 682 mmHg 98%
    21:00 +9°C° 2.5 mm 1 m/S 682 mmHg 98%
    22:00 +9°C° 2.5 mm 1 m/S 682 mmHg 98%
    23:00 +8°C° 0.9 mm 1 m/S 682 mmHg 97%

    Morgen, 18 November, Montag

    Zeit Temperatur Niederschläge Wind Luftdruck Luftfeuchtigkeit
    00:00 +8°C° 0.9 mm 1 m/S 682 mmHg 97%
    01:00 +8°C° 0.9 mm 1 m/S 682 mmHg 96%
    02:00 +7°C° 0.1 mm 1 m/S 682 mmHg 96%
    03:00 +7°C° 0.1 mm 1 m/S 682 mmHg 96%
    04:00 +7°C° 0.1 mm 1 m/S 682 mmHg 96%
    05:00 +6°C° 0 mm 1 m/S 682 mmHg 96%
    06:00 +6°C° 0 mm 1 m/S 683 mmHg 96%
    07:00 +6°C° 0 mm 1 m/S 683 mmHg 96%
    08:00 +5°C° 0 mm 2 m/S 684 mmHg 92%
    09:00 +6°C° 0 mm 2 m/S 684 mmHg 88%
    10:00 +6°C° 0 mm 2 m/S 685 mmHg 84%
    11:00 +7°C° 0 mm 2 m/S 685 mmHg 79%
    12:00 +7°C° 0 mm 2 m/S 685 mmHg 73%
    13:00 +7°C° 0 mm 2 m/S 686 mmHg 68%
    14:00 +7°C° 0 mm 2 m/S 686 mmHg 73%
    15:00 +6°C° 0 mm 2 m/S 686 mmHg 78%
    16:00 +6°C° 0 mm 1 m/S 686 mmHg 84%
    17:00 +5°C° 0.2 mm 1 m/S 686 mmHg 86%
    18:00 +5°C° 0.2 mm 1 m/S 687 mmHg 88%
    19:00 +5°C° 0.2 mm 1 m/S 687 mmHg 91%
    20:00 +4°C° 0.5 mm 0 m/S 687 mmHg 92%
    21:00 +4°C° 0.5 mm 0 m/S 687 mmHg 94%
    22:00 +4°C° 0.5 mm 0 m/S 688 mmHg 96%
    23:00 +4°C° 0.9 mm 0 m/S 688 mmHg 96%

    übermorgen, 19 November, Dienstag

    Zeit Temperatur Niederschläge Wind Luftdruck Luftfeuchtigkeit
    00:00 +4°C° 0.9 mm 0 m/S 688 mmHg 96%
    01:00 +6°C° 0.9 mm 1 m/S 688 mmHg 97%
    02:00 +6°C° 2.7 mm 1 m/S 687 mmHg 97%
    03:00 +6°C° 2.7 mm 1 m/S 687 mmHg 98%
    04:00 +6°C° 2.7 mm 1 m/S 687 mmHg 98%
    05:00 +6°C° 3.3 mm 1 m/S 687 mmHg 98%
    06:00 +6°C° 3.3 mm 1 m/S 687 mmHg 98%
    07:00 +6°C° 3.3 mm 1 m/S 687 mmHg 98%
    08:00 +6°C° 1.8 mm 1 m/S 687 mmHg 97%
    09:00 +6°C° 1.8 mm 1 m/S 687 mmHg 96%
    10:00 +7°C° 1.8 mm 1 m/S 687 mmHg 96%
    11:00 +7°C° 1.6 mm 1 m/S 687 mmHg 96%
    12:00 +7°C° 1.6 mm 1 m/S 687 mmHg 96%
    13:00 +7°C° 1.6 mm 1 m/S 687 mmHg 96%
    14:00 +7°C° 2 mm 1 m/S 687 mmHg 96%
    15:00 +7°C° 2 mm 1 m/S 687 mmHg 97%
    16:00 +7°C° 2 mm 1 m/S 687 mmHg 97%
    17:00 +7°C° 2 mm 1 m/S 687 mmHg 97%
    18:00 +7°C° 2 mm 1 m/S 687 mmHg 97%
    19:00 +7°C° 2 mm 1 m/S 687 mmHg 98%
    20:00 +7°C° 2.9 mm 1 m/S 687 mmHg 98%
    21:00 +7°C° 2.9 mm 1 m/S 688 mmHg 98%
    22:00 +6°C° 2.9 mm 0 m/S 688 mmHg 98%
    23:00 +6°C° 2.8 mm 0 m/S 688 mmHg 98%

    20 November, Mittwoch

    Zeit Temperatur Niederschläge Wind Luftdruck Luftfeuchtigkeit
    00:00 +6°C° 2.8 mm 0 m/S 688 mmHg 98%
    01:00 +6°C° 2.8 mm 0 m/S 688 mmHg 98%
    02:00 +5°C° 1.2 mm 0 m/S 688 mmHg 97%
    03:00 +5°C° 1.2 mm 0 m/S 688 mmHg 97%
    04:00 +5°C° 1.2 mm 0 m/S 688 mmHg 97%
    05:00 +5°C° 0.5 mm 0 m/S 688 mmHg 97%
    06:00 +5°C° 0.5 mm 0 m/S 688 mmHg 97%
    07:00 +5°C° 0.5 mm 0 m/S 689 mmHg 97%
    08:00 +6°C° 0.5 mm 0 m/S 689 mmHg 96%
    09:00 +6°C° 0.5 mm 0 m/S 689 mmHg 95%
    10:00 +6°C° 0.5 mm 0 m/S 689 mmHg 95%
    11:00 +7°C° 0.1 mm 0 m/S 689 mmHg 94%
    12:00 +7°C° 0.1 mm 0 m/S 689 mmHg 93%
    13:00 +8°C° 0.1 mm 0 m/S 689 mmHg 91%
    14:00 +7°C° 0.2 mm 0 m/S 689 mmHg 93%
    15:00 +7°C° 0.2 mm 0 m/S 689 mmHg 94%
    16:00 +7°C° 0.2 mm 0 m/S 689 mmHg 96%
    17:00 +7°C° 0.1 mm 0 m/S 689 mmHg 96%
    18:00 +6°C° 0.1 mm 0 m/S 689 mmHg 96%
    19:00 +6°C° 0.1 mm 0 m/S 690 mmHg 97%
    20:00 +6°C° 0 mm 0 m/S 690 mmHg 97%
    21:00 +6°C° 0 mm 0 m/S 690 mmHg 97%
    22:00 +6°C° 0 mm 0 m/S 690 mmHg 97%
    23:00 +6°C° 0 mm 0 m/S 690 mmHg 97%

    21 November, Donnerstag

    Zeit Temperatur Niederschläge Wind Luftdruck Luftfeuchtigkeit
    00:00 +6°C° 0 mm 0 m/S 689 mmHg 97%
    01:00 +6°C° 0 mm 0 m/S 689 mmHg 97%
    02:00 +5°C° 0 mm 0 m/S 689 mmHg 97%
    03:00 +5°C° 0 mm 0 m/S 689 mmHg 97%
    04:00 +5°C° 0 mm 0 m/S 688 mmHg 97%
    05:00 +5°C° 0 mm 0 m/S 688 mmHg 97%
    06:00 +5°C° 0 mm 0 m/S 688 mmHg 97%
    07:00 +5°C° 0 mm 0 m/S 688 mmHg 97%
    08:00 +6°C° 0 mm 1 m/S 689 mmHg 95%
    09:00 +7°C° 0 mm 1 m/S 689 mmHg 93%
    10:00 +7°C° 0 mm 1 m/S 689 mmHg 91%
    11:00 +8°C° 0 mm 1 m/S 689 mmHg 87%
    12:00 +8°C° 0 mm 1 m/S 689 mmHg 84%
    13:00 +9°C° 0 mm 1 m/S 689 mmHg 80%
    14:00 +8°C° 0 mm 1 m/S 689 mmHg 84%
    15:00 +7°C° 0 mm 1 m/S 688 mmHg 87%
    16:00 +6°C° 0 mm 1 m/S 688 mmHg 91%
    17:00 +6°C° 0 mm 1 m/S 688 mmHg 92%
    18:00 +5°C° 0 mm 1 m/S 688 mmHg 94%
    19:00 +4°C° 0 mm 1 m/S 688 mmHg 95%
    20:00 +4°C° 0 mm 1 m/S 688 mmHg 95%
    21:00 +4°C° 0 mm 1 m/S 688 mmHg 95%
    22:00 +4°C° 0 mm 1 m/S 689 mmHg 96%
    23:00 +3°C° 0 mm 1 m/S 688 mmHg 95%

    22 November, Freitag

    Zeit Temperatur Niederschläge Wind Luftdruck Luftfeuchtigkeit
    00:00 +3°C° 0 mm 1 m/S 688 mmHg 95%
    01:00 +3°C° 0 mm 1 m/S 688 mmHg 94%
    02:00 +3°C° 0 mm 1 m/S 688 mmHg 94%
    03:00 +3°C° 0 mm 1 m/S 688 mmHg 94%
    04:00 +2°C° 0 mm 1 m/S 688 mmHg 94%
    05:00 +2°C° 0 mm 1 m/S 688 mmHg 94%
    06:00 +2°C° 0 mm 1 m/S 688 mmHg 93%
    07:00 +2°C° 0 mm 1 m/S 688 mmHg 93%
    08:00 +3°C° 0 mm 1 m/S 688 mmHg 90%
    09:00 +5°C° 0 mm 1 m/S 689 mmHg 87%
    10:00 +6°C° 0 mm 1 m/S 689 mmHg 84%
    11:00 +7°C° 0 mm 1 m/S 689 mmHg 84%
    12:00 +7°C° 0 mm 1 m/S 689 mmHg 84%
    13:00 +8°C° 0 mm 1 m/S 689 mmHg 84%
    14:00 +7°C° 0 mm 1 m/S 688 mmHg 87%
    15:00 +7°C° 0 mm 1 m/S 688 mmHg 91%
    16:00 +7°C° 0 mm 1 m/S 688 mmHg 94%
    17:00 +6°C° 0 mm 1 m/S 688 mmHg 95%
    18:00 +6°C° 0 mm 1 m/S 688 mmHg 96%
    19:00 +6°C° 0 mm 1 m/S 688 mmHg 96%
    20:00 +6°C° 0.1 mm 1 m/S 688 mmHg 96%
    21:00 +6°C° 0.1 mm 1 m/S 688 mmHg 96%
    22:00 +6°C° 0.1 mm 1 m/S 688 mmHg 97%
    23:00 +6°C° 0.1 mm 1 m/S 688 mmHg 97%
    Mehr zeigen